Flag for Germany Weather past 2 weeks in Riesa, Saxony, Germany

Now
77 °F

Overcast.


Feels Like: 79 °F
Forecast: 66 / 80 °F
Wind: 5 mph from South

Location: Dresden-Klotzsche

Current Time: Jul 5, 2015 at 2:55:38 AM

Latest Report: Jul 5, 2015 at 2:00 AM


Visibility: 19 mi

Pressure: 30.06 "Hg

Humidity: 57%

Dew point: 61 °F

Location of RiesaLocation

Historic Weather in Riesa — Graph

°F

Riesa temperature yesterday

Maximum temperature yesterday: 95 °F (at 4:00 PM)
Minimum temperature yesterday: 69 °F (at 6:00 AM)
Average temperature yesterday: 84 °F

Past Weeks' High & Low Weather Summary

 TemperatureHumidityPressure
High95 °F (Jul 4, 4:00 PM)96% (Jun 23, 3:00 AM)30.25 "Hg (Jun 23, 3:00 AM)
Low48 °F (Jun 25, 6:00 AM)27% (Jul 4, 2:00 PM)29.65 "Hg (Jun 23, 6:00 AM)
Average65 °F66%30.08 "Hg
* Reported Jun 20 1:00 AM — Jul 5 1:00 AM, Riesa, Weather by CustomWeather, © 2015

Note: Actual official high and low records may vary slightly from our data, if they occured in-between our weather recording intervals... More about our weather records

Advertising

Riesa weather history for previous 24 hours

 ConditionsComfort  
Time TempWeatherWind HumidityBarometerVisibility
1:00 AM
Sun, Jul 5
79 °FOvercast.3 mph51%30.06 "Hg19 mi
12:00 AM82 °FOvercast.5 mph46%30.06 "Hg19 mi
10:00 PM
Sat, Jul 4
85 °FOvercast.5 mph46%30.07 "Hg19 mi
9:00 PM88 °FPartly sunny.5 mph42%30.06 "Hg19 mi
8:00 PM91 °FScattered clouds.5 mph34%30.05 "Hg22 mi
7:00 PM93 °FPassing clouds.5 mph29%30.06 "Hg22 mi
6:00 PM94 °FPassing clouds.5 mph28%30.06 "Hg22 mi
4:00 PM95 °FPassing clouds.2 mph27%30.09 "Hg25 mi
3:00 PM93 °FPassing clouds.2 mph27%30.10 "Hg25 mi
2:00 PM93 °FPassing clouds.3 mph27%30.11 "Hg25 mi
1:00 PM92 °FPassing clouds.3 mph28%30.13 "Hg25 mi
12:00 PM91 °FPassing clouds.2 mph33%30.14 "Hg25 mi
11:00 AM89 °FSunny.3 mph40%30.14 "Hg25 mi
10:00 AM85 °FSunny.2 mph45%30.15 "Hg25 mi
9:00 AM79 °FSunny.3 mph53%30.16 "Hg25 mi
8:00 AM75 °FSunny.5 mph58%30.17 "Hg25 mi
7:00 AM71 °FSunny.3 mph63%30.18 "Hg22 mi
6:00 AM69 °FPassing clouds.5 mph66%30.19 "Hg22 mi
4:00 AM74 °FPassing clouds.5 mph49%30.19 "Hg22 mi
3:00 AM74 °FClear.5 mph52%30.20 "Hg22 mi
2:00 AM74 °FPassing clouds.5 mph56%30.21 "Hg19 mi
Weather by CustomWeather, © 2015

See weather overviewHow to use our weather pages